Location: Strohbehn Observatory
(42.4649°N, 93.8239°W)
Time: 03:06:13
(UTC-05:00)

SL-16 R/B - Visible Passes

Search period start: 20 October 2014 00:00
Search period end: 30 October 2014 00:00
Orbit: 843 x 846 km, 71.0° (Epoch: 20 October)

Date Brightness Start Highest point End Pass type
(mag) Time Alt. Az. Time Alt. Az. Time Alt. Az.
20 Oct 4.1 19:22:12 10° WSW 19:27:02 28° NW 19:31:54 10° N visible
21 Oct 4.1 19:07:58 10° WSW 19:12:51 29° NW 19:17:46 10° N visible
22 Oct 4.0 18:53:43 10° WSW 18:58:39 30° NW 19:03:38 10° N visible
23 Oct 4.0 18:39:29 10° WSW 18:44:28 31° NW 18:49:29 10° N visible
